TimeEDT,TemperatureF,Dew PointF,Humidity,Sea Level PressureIn,VisibilityMPH,Wind Direction,Wind SpeedMPH,Gust SpeedMPH,PrecipitationIn,Events,Conditions,WindDirDegrees,DateUTC
12:56 AM,75.0,62.1,64,29.88,10.0,Calm,Calm,-,N/A,,Overcast,0,2013-06-18 04:56:00
1:56 AM,72.0,66.9,84,29.88,10.0,WSW,9.2,-,N/A,,Overcast,240,2013-06-18 05:56:00
2:56 AM,71.1,66.0,84,29.88,10.0,WSW,8.1,-,N/A,,Overcast,240,2013-06-18 06:56:00
3:56 AM,70.0,64.9,84,29.87,10.0,WSW,8.1,-,N/A,,Overcast,250,2013-06-18 07:56:00
4:56 AM,70.0,64.0,81,29.86,10.0,NW,5.8,-,N/A,,Overcast,310,2013-06-18 08:56:00
5:56 AM,69.1,64.0,84,29.88,10.0,NNW,5.8,-,N/A,,Overcast,330,2013-06-18 09:56:00
6:56 AM,68.0,64.9,90,29.88,9.0,Calm,Calm,-,N/A,,Mostly Cloudy,0,2013-06-18 10:56:00
7:56 AM,69.1,64.0,84,29.91,10.0,SW,12.7,-,N/A,,Mostly Cloudy,220,2013-06-18 11:56:00
8:56 AM,73.0,64.9,76,29.92,10.0,SW,11.5,-,N/A,,Mostly Cloudy,230,2013-06-18 12:56:00
9:56 AM,73.9,64.9,73,29.92,9.0,WSW,9.2,-,N/A,,Partly Cloudy,240,2013-06-18 13:56:00
10:56 AM,75.9,64.9,69,29.92,10.0,WNW,6.9,-,N/A,,Scattered Clouds,300,2013-06-18 14:56:00
11:56 AM,80.1,64.9,60,29.92,10.0,Variable,6.9,-,N/A,,Scattered Clouds,0,2013-06-18 15:56:00
12:56 PM,80.1,61.0,52,29.90,10.0,North,4.6,-,N/A,,Mostly Cloudy,360,2013-06-18 16:56:00
1:56 PM,82.0,62.1,51,29.91,10.0,Variable,4.6,-,N/A,,Mostly Cloudy,0,2013-06-18 17:56:00
2:56 PM,80.1,64.0,58,29.90,10.0,North,12.7,-,N/A,,Mostly Cloudy,10,2013-06-18 18:56:00
3:56 PM,82.0,64.0,54,29.91,10.0,NE,11.5,-,N/A,,Scattered Clouds,40,2013-06-18 19:56:00
4:56 PM,81.0,63.0,54,29.91,10.0,North,13.8,-,N/A,,Partly Cloudy,10,2013-06-18 20:56:00
5:56 PM,80.1,59.0,48,29.90,10.0,North,13.8,-,N/A,,Scattered Clouds,360,2013-06-18 21:56:00
6:56 PM,78.1,59.0,52,29.90,10.0,NNE,15.0,-,N/A,,Mostly Cloudy,20,2013-06-18 22:56:00
7:56 PM,75.9,59.0,56,29.93,10.0,NNE,16.1,-,N/A,,Mostly Cloudy,20,2013-06-18 23:56:00
8:56 PM,72.0,59.0,64,29.96,10.0,NE,15.0,21.9,N/A,,Mostly Cloudy,40,2013-06-19 00:56:00
9:56 PM,68.0,57.9,70,29.98,10.0,NE,11.5,-,N/A,,Scattered Clouds,50,2013-06-19 01:56:00
10:56 PM,66.0,57.0,73,30.00,10.0,NE,15.0,23.0,N/A,,Scattered Clouds,50,2013-06-19 02:56:00
11:56 PM,64.0,55.9,75,30.02,10.0,ENE,10.4,-,N/A,,Partly Cloudy,60,2013-06-19 03:56:00